This demonstration page uses our WeatherBlox Daily Observations layout. Learn more.

Left ArrowRight Arrow

34.74481, -87.66753

Hourly Observations for October 14, 2019

Temp ( °F °C ) Dew Point ( °F °C ) Humidity (%) Winds ( mph kmh ) Pressure ( in mb ) Visibility ( mi km ) Precip ( " mm )
12:53 am 00:53 Clear 47 8.3 44 6.7 90 90 Calm 30.09 1019 10 16 0.00 0.00
1:53 am 01:53 Clear 48 8.9 45 7.2 89 89 Calm 30.09 1019 10 16 0.00 0.00
2:34 am 02:34 Clear with Mist and Fog 45 7.2 43 6.1 93 93 Calm 30.11 1020 2 3 0.00 0.00
2:53 am 02:53 Clear with Fog 45 7.2 43 6.1 93 93 Calm 30.10 1019 1 1 0.00 0.00
3:16 am 03:16 Mostly Cloudy with Mist and Fog 44 6.7 42 5.6 93 93 Calm 30.11 1020 1 2 0.00 0.00
3:25 am 03:25 Mostly Cloudy 44 6.7 42 5.6 93 93 Calm 30.11 1020 8 13 0.00 0.00
3:32 am 03:32 Partly Cloudy 44 6.7 41 5 89 89 Calm 30.11 1020 10 16 0.00 0.00
3:49 am 03:49 Mostly Cloudy 45 7 43 6 93 93 Calm 30.12 1020 7 11 0.00 0.00
3:53 am 03:53 Mostly Cloudy with Mist and Fog 43 6.1 41 5 93 93 Calm 30.10 1019 4 6 0.00 0.00
3:59 am 03:59 Mostly Cloudy with Mist and Fog 43 6.1 41 5 93 93 SSE 3 6 30.12 1020 2 3 0.00 0.00
4:10 am 04:10 Mostly Cloudy with Fog 43 6.1 41 5 93 93 Calm 30.12 1020 1 1 0.00 0.00
4:18 am 04:18 Partly Cloudy with Mist and Fog 44 6.7 42 5.6 93 93 Calm 30.11 1020 1 2 0.00 0.00
4:40 am 04:40 Mostly Cloudy with Mist and Fog 46 7.8 44 6.7 93 93 Calm 30.11 1020 1 1 0.00 0.00
4:53 am 04:53 Mostly Cloudy with Fog 46 7.8 45 7.2 96 96 Calm 30.10 1019 1 1 0.00 0.00
5:21 am 05:21 Mostly Cloudy with Fog 47 8.3 45 7.2 93 93 SSE 5 7 30.13 1020 0 0 0.00 0.00
5:44 am 05:44 Mostly Cloudy with Fog 47 8.3 46 7.8 97 97 SSE 3 6 30.14 1021 1 1 0.00 0.00
5:53 am 05:53 Mostly Cloudy with Fog 48 8.9 46 7.8 93 93 S 3 6 30.13 1020 0 0 0.00 0.00
6:53 am 06:53 Mostly Cloudy with Fog 49 9.4 47 8.3 93 93 Calm 30.13 1020 0 0 0.00 0.00
7:53 am 07:53 Mostly Cloudy with Fog 50 10 48 8.9 93 93 SSE 6 9 30.14 1021 0 0 0.00 0.00
8:53 am 08:53 Mostly Cloudy with Fog 51 10.6 50 10 96 96 Calm 30.16 1021 0 0 0.00 0.00
9:18 am 09:18 Mostly Cloudy with Mist and Fog 52 11.1 50 10 93 93 E 5 7 30.17 1022 1 1 0.00 0.00
9:22 am 09:22 Cloudy with Mist and Fog 52 11.1 50 10 93 93 E 6 9 30.17 1022 2 3 0.00 0.00
9:30 am 09:30 Cloudy with Mist and Fog 52 11.1 51 10.6 97 97 E 3 6 30.17 1022 5 8 0.00 0.00
9:53 am 09:53 Cloudy 53 11.7 50 10 89 89 ESE 3 6 30.16 1021 10 16 0.00 0.00
10:07 am 10:07 Cloudy 54 12.2 51 10.6 90 90 E 3 6 30.17 1022 10 16 0.00 0.00
10:22 am 10:22 Cloudy 54 12.2 51 10.6 90 90 Calm 30.17 1022 10 16 0.00 0.00
10:53 am 10:53 Mostly Sunny 58 14.4 52 11.1 81 81 VRB 3 6 30.15 1021 10 16 0.00 0.00
11:53 am 11:53 Sunny 65 18.3 52 11.1 63 63 VRB 5 7 30.14 1021 10 16 0.00 0.00
12:53 pm 12:53 Mostly Sunny 68 20 50 10 53 53 VRB 3 6 30.11 1020 10 16 0.00 0.00
1:53 pm 13:53 Cloudy 71 21.7 48 8.9 44 44 SSE 3 6 30.09 1019 10 16 0.00 0.00
2:53 pm 14:53 Mostly Cloudy 72 22.2 48 8.9 43 43 Calm 30.08 1019 10 16 0.00 0.00
3:53 pm 15:53 Mostly Cloudy 74 23.3 50 10 43 43 NNW 3 6 30.07 1018 10 16 0.00 0.00
4:53 pm 16:53 Cloudy 73 22.8 50 10 44 44 Calm 30.06 1018 10 16 0.00 0.00
5:53 pm 17:53 Cloudy 71 21.7 51 10.6 49 49 W 3 6 30.07 1018 10 16 0.00 0.00
6:53 pm 18:53 Cloudy 69 20.6 55 12.8 61 61 Calm 30.07 1018 10 16 0.00 0.00
7:53 pm 19:53 Cloudy 68 20 57 13.9 68 68 Calm 30.08 1019 10 16 0.00 0.00
8:53 pm 20:53 Cloudy 67 19.4 56 13.3 68 68 S 7 11 30.08 1019 10 16 0.00 0.00
9:53 pm 21:53 Cloudy 67 19.4 56 13.3 68 68 SSE 3 6 30.09 1019 10 16 0.00 0.00
10:53 pm 22:53 Cloudy 67 19.4 55 12.8 66 66 Calm 30.08 1019 10 16 0.00 0.00
11:53 pm 23:53 Cloudy 66 18.9 56 13.3 70 70 Calm 30.08 1019 10 16 0.00 0.00

Powered by AerisWeather